Neuburg, Germany

1:08 PM CEST on May 29, 2017 (GMT +0200)
Neuburg Air Base

Weather History for ETSN - October, 2012

Change the Weather History Date:

Friday, October 26, 2012

  Actual Average (EDMA) Record (EDMA)
Temperature  
Mean Temperature 48 °F -  
Max Temperature 50 °F 53 °F 73 °F (2006)
Min Temperature 46 °F 39 °F 24 °F (2003)
Degree Days  
Heating Degree Days 17    
Moisture  
Dew Point 42 °F    
Average Humidity 81    
Maximum Humidity 93    
Minimum Humidity 66    
Precipitation  
Precipitation 0.00 in - - ()
Sea Level Pressure  
Sea Level Pressure 29.73 in    
Wind  
Wind Speed 4 mph ()    
Max Wind Speed 10 mph    
Max Gust Speed -    
Visibility 5.2 miles    
Events Fog    
Averages and records for this station are not official NWS values.
T = Trace of Precipitation, MM = Missing Value Source: Averaged Metar Reports

Daily Weather History Graph

Daily Weather History Graph

Search for Another Location

Airport or City:

Trip Planner

Search our weather history database for the weather conditions in past years. The results will help you decide how hot, cold, wet, or windy it might be!

Date:

Astronomy

Oct. 26, 2012 Rise Set
Actual Time 7:52 AM CEST 6:04 PM CEST
Civil Twilight 7:20 AM CEST 6:37 PM CEST
Nautical Twilight 6:43 AM CEST 7:13 PM CEST
Astronomical Twilight 6:06 AM CEST 7:50 PM CEST
Moon 4:23 PM CEST (10/26) 4:18 AM CEST (10/26)
Length of Visible Light 11h 17m
Length of Day
10h 12m
Waxing Gibbous, 89% of the Moon is Illuminated
Oct 26
Waxing Gibbous
Oct 29
Full
Nov 7
Last Quarter
Nov 13
New
Nov 20
First Quarter

Hourly Weather History & Observations

Time (CEST) Temp. Windchill Dew Point Humidity Pressure Visibility Wind Dir Wind Speed Gust Speed Precip Events Conditions
12:20 AM 46.4 °F 45.2 °F 44.6 °F 93% 29.89 in 4.3 mi NW 3.5 mph - N/A Fog Fog
1:20 AM 46.4 °F - 44.6 °F 93% 29.89 in 4.3 mi Calm Calm - N/A Fog Fog
2:20 AM 46.4 °F - 44.6 °F 93% 29.86 in 3.7 mi Calm Calm - N/A   Scattered Clouds
3:20 AM 46.4 °F - 44.6 °F 93% 29.86 in 2.8 mi NE 1.2 mph - N/A   Mostly Cloudy
4:20 AM 46.4 °F - 44.6 °F 93% 29.86 in 2.8 mi North 2.3 mph - N/A   Mostly Cloudy
5:20 AM 46.4 °F 45.2 °F 44.6 °F 93% 29.86 in 3.1 mi NNE 3.5 mph - N/A   Mostly Cloudy
6:20 AM 46.4 °F 43.5 °F 44.6 °F 93% 29.86 in 3.1 mi North 5.8 mph - N/A   Mostly Cloudy
7:20 AM 46.4 °F 44.3 °F 42.8 °F 87% 29.83 in 3.1 mi NNE 4.6 mph - N/A   Mostly Cloudy
8:20 AM 46.4 °F 43.5 °F 41.0 °F 81% 29.83 in 5.6 mi NE 5.8 mph - N/A   Mostly Cloudy
9:20 AM 46.4 °F 42.9 °F 41.0 °F 81% 29.83 in 6.2 mi NE 6.9 mph - N/A   Mostly Cloudy
10:20 AM 46.4 °F 42.4 °F 37.4 °F 71% 29.83 in 6.2 mi NE 8.1 mph - N/A   Mostly Cloudy
11:20 AM 48.2 °F - 37.4 °F 66% 29.80 in 6.2 mi ENE 6.9 mph - N/A   Mostly Cloudy
12:20 PM 50.0 °F - 39.2 °F 66% 29.77 in 6.2 mi ENE 8.1 mph - N/A   Mostly Cloudy
12:37 PM 50.0 °F - 39.2 °F 66% 29.77 in 6.2 mi ENE 6.9 mph - N/A   Mostly Cloudy
1:20 PM 50.0 °F - 41.0 °F 71% 29.74 in 6.2 mi East 6.9 mph - N/A   Mostly Cloudy
2:20 PM 50.0 °F - 41.0 °F 71% 29.71 in 6.2 mi ENE 8.1 mph - N/A   Mostly Cloudy
3:20 PM 50.0 °F - 41.0 °F 71% 29.68 in 6.2 mi East 9.2 mph - N/A   Mostly Cloudy
4:20 PM 48.2 °F - 41.0 °F 76% 29.65 in 6.2 mi ENE 8.1 mph - N/A   Mostly Cloudy
4:38 PM 48.2 °F - 42.8 °F 82% 29.65 in 6.2 mi ENE 8.1 mph - N/A   Mostly Cloudy
5:20 PM 48.2 °F - 42.8 °F 82% 29.62 in 5.6 mi ENE 10.4 mph - N/A   Mostly Cloudy
6:20 PM 48.2 °F - 42.8 °F 82% 29.59 in 5.0 mi East 9.2 mph - N/A   Overcast
7:20 PM 46.4 °F 42.9 °F 42.8 °F 87% 29.56 in 5.0 mi ENE 6.9 mph - N/A   Overcast
8:20 PM 46.4 °F 41.9 °F 41.0 °F 81% 29.53 in 6.2 mi ENE 9.2 mph - N/A   Overcast
9:20 PM 46.4 °F 42.4 °F 41.0 °F 81% 29.50 in 6.2 mi ENE 8.1 mph - N/A   Overcast
10:20 PM 46.4 °F 42.9 °F 41.0 °F 81% 29.47 in 6.2 mi ENE 6.9 mph - N/A   Overcast
11:20 PM 46.4 °F 43.5 °F 41.0 °F 81% 29.44 in 6.2 mi ENE 5.8 mph - N/A   Overcast